View from above orbital plane
|
View from above satellite
|
Ground track
|
The orbit data is extracted from the following two-line orbital elements,
1 04589U 70086B 21065.96051269 .00000019 00000-0 14067-4 0 9991
2 04589 74.0616 324.7529 0021256 200.1975 159.8342 14.41628792642574
Epoch (UTC): | 06 March 2021 23:03:08 |
Eccentricity: | 0.0021256 |
inclination: | 74.0616° |
perigee height: | 738 km |
apogee height: | 768 km |
right ascension of ascending node: | 324.7529° |
argument of perigee: | 200.1975° |
revolutions per day: | 14.41628792 |
mean anomaly at epoch: | 159.8342° |
orbit number at epoch: | 64257 |
The dashed part of the orbit path shows where the satellite is in the earth's shadow,
|
|